Regional Weather Roundup
Issued by NWS

Home | Current Version | Previous Version | Graphics & Text | Print | Product List | Glossary Off
Versions: 1 2 3 4 5 6 7 8 9 10 11 12 13 14 15 16 17 18 19 20 21 22 23 24 25 26 27 28 29 30 31 32 33 34 35 36 37 38 39 40 41 42 43 44 45 46 47 48 49 50

000
ASUS43 KMPX 030810
RWRMN
WEATHER ROUNDUP FOR MINNESOTA
NATIONAL WEATHER SERVICE TWIN CITIES/CHANHASSEN MN
300 AM CDT TUE MAY 03 2016


NOTE: "FAIR" INDICATES FEW OR NO CLOUDS BELOW 12,000 FEET WITH NO
SIGNIFICANT WEATHER AND/OR OBSTRUCTIONS TO VISIBILITY. N/A MEANS
CURRENT SKY AND/OR WEATHER CONDITIONS ARE NOT AVAILABLE.

MNZ060>063-068>070-030900-
   Twin Cities Metro

CITY           SKY/WX    TMP DP  RH WIND       PRES   REMARKS
TWIN CITIES    CLEAR     52  36  54 W5        29.97F
ST PAUL        CLEAR     50  39  66 N3        29.97F
CRYSTAL        CLEAR     53  36  52 SW6       29.95F
BLAINE         CLEAR     52  37  58 SW5       29.95F
EDEN PRAIRIE   CLEAR     49  36  61 SW6       29.96F
SOUTH ST PAUL  CLEAR     51  37  57 W6        29.96F
LAKE ELMO      FAIR      46  36  66 SW3       29.97F
$$
MNZ001>005-007-008-013>017-022>024-027-028-030900-
   Northwest Minnesota

CITY           SKY/WX    TMP DP  RH WIND       PRES   REMARKS
BEMIDJI        CLOUDY    49  36  60 W8        29.90F
HALLOCK        CLEAR     54  36  50 W15       29.86F
ROSEAU         CLOUDY    55  37  50 W13G18    29.85F
WARROAD        CLOUDY    54  37  54 W16       29.83F
THIEF RVR FALL CLOUDY    50  34  53 W10       29.91F
CROOKSTON      CLOUDY    52  36  54 W10       29.92F
FOSSTON        MOCLDY    48  34  57 SW7       29.92F
DETROIT LAKES  CLOUDY    50  37  62 NW6       29.95F
MOORHEAD       CLOUDY    48  37  66 SW3       29.96F
PARK RAPIDS    CLOUDY    45  35  68 W7        29.92F
MAHNOMEN       FAIR      47  36  64 CALM      29.94S
$$
MNZ006-009>011-018-025>026-030900-
   North Central Minnesota

CITY           SKY/WX    TMP DP  RH WIND       PRES   REMARKS
BAUDETTE       PTCLDY    52  29  41 W10       29.82F
FLAG ISLAND    PTCLDY    55  34  44 W13       29.78F
INTL FALLS     CLOUDY    46  29  51 SW7       29.81F
WASKISH        CLOUDY    54  43  66 SW10      29.86F
BIG FORK       PTCLDY    37  34  87 SW3       29.86F
LONGVILLE      CLOUDY    39  36  87 CALM      29.91F
GRAND RAPIDS   CLOUDY    52  28  40 W5        29.90F
CRANE LAKE     CLOUDY    43  30  61 S5        29.83F
ORR            CLOUDY    46  25  42 CALM      29.82F
COOK           CLOUDY    46  28  49 SW5       29.85F
WALKER         FAIR      51  35  55 W7        29.91S
$$
MNZ012-019>021-037-030900-
   Northeast Minnesota

CITY           SKY/WX    TMP DP  RH WIND       PRES   REMARKS
DULUTH         CLEAR     47  31  53 W13       29.88F
ELY            CLOUDY    46  28  49 SW6       29.83F
HIBBING        CLOUDY    32  29  88 SW3       29.86F
EVELETH        CLOUDY    36  34  93 CALM      29.87F
DULUTH HARBOR  CLEAR     43  37  81 SW8       29.89F
TWO HARBORS    CLOUDY    39  34  81 SW3       29.85F
SILVER BAY     PTCLDY    32  28  86 CALM      29.84F
GRAND MARAIS     N/A     37  34  89 W6        29.83F
G MARAIS ARPRT CLOUDY    43  27  52 SW5       29.83F
$$
MNZ029>031-032-039>041-046>048-054>057-064-030900-
   West Central Minnesota

CITY           SKY/WX    TMP DP  RH WIND       PRES   REMARKS
FERGUS FALLS   CLOUDY    45  36  70 W3        29.96S
WHEATON        PTCLDY    46  39  76 SW7       30.00F
MORRIS         CLEAR     43  34  70 NW7       29.97F
ALEXANDRIA     PTCLDY    47  36  65 W5        29.97F
ELBOW LAKE     FAIR      45  36  71 NW6       29.98S
WADENA         CLOUDY    46  34  61 W6        29.94F
GLENWOOD       CLEAR     46  37  71 W8        29.97F
APPLETON       CLEAR     45  37  76 W6        29.98S
BENSON         CLEAR     37  32  81 W6        29.98S
ORTONVILLE     CLEAR     48  39  71 N6        29.99S
MADISON        CLEAR     45  36  70 W8        29.99S
WILLMAR        FAIR      46  36  66 SW3       29.98F
$$
MNZ033>034-036-042>043-049>051-058-059-030900-
   Central Minnesota

CITY           SKY/WX    TMP DP  RH WIND       PRES   REMARKS
ST CLOUD       CLEAR     43  35  73 CALM      29.95F
SAUK CENTRE    FAIR      43  32  66 SW3       29.96F
PAYNESVILLE    CLEAR     39  33  80 W5        29.97F
AITKIN         CLEAR     52  28  40 SW5       29.91S
PINE RIVER     CLOUDY    41  34  75 CALM      29.95F
BRAINERD       CLEAR     44  33  65 SW5       29.94S
STAPLES        CLEAR     45  30  57 W5        29.94F
LONG PRAIRIE   FAIR      41  34  75 CALM      29.96S
LITTLE FALLS   CLEAR     39  32  75 CALM      29.95S
LITCHFIELD     CLEAR     48  37  66 SW3       29.97F
BUFFALO        CLEAR     48  38  67 SW3       29.97F
MAPLE LAKE     CLEAR     49  39  68 SW5       29.97F
HUTCHINSON     CLEAR     49  39  68 SW5       29.98F
$$
MNZ037-044-045-052-053-030900-
   East Central Minnesota

CITY           SKY/WX    TMP DP  RH WIND       PRES   REMARKS
PRINCETON      CLEAR     43  36  75 CALM      29.95F
MORA           CLEAR     48  34  57 W3        29.95F
CAMBRIDGE      CLEAR     48  36  61 CALM      29.93F
RUSH CITY      PTCLDY    48  35  59 SW5       29.94F
MOOSE LAKE     CLEAR     45  32  61 SW6       29.89F
HINCKLEY       FAIR      41  36  81 CALM      29.93F
CLOQUET        CLEAR     52  28  40 W8        29.89F
MCGREGOR       CLEAR     48  34  57 CALM      29.92S
$$
MNZ071>073-080-081-089-090-097-098-030900-
   Southwest Minnesota

CITY           SKY/WX    TMP DP  RH WIND       PRES   REMARKS
MONTEVIDEO     CLEAR     46  36  66 W6        30.00S
GRANITE FALLS  CLEAR     46  38  72 SW6       30.00F
CANBY          CLEAR     47  41  78 NW5       30.01S
MARSHALL       CLEAR     48  39  71 W7        30.00S
REDWOOD FALLS  CLEAR     51  37  58 W10       29.99S
OLIVIA         CLEAR     43  34  70 SW7       29.98S
PIPESTONE      CLEAR     45  37  76 CALM      30.01F
WINDOM         CLEAR     45  39  81 CALM      30.00F
WORTHINGTON    CLEAR     44  39  82 W7        30.01F
JACKSON        CLEAR     45  37  76 SW3       30.01F
TRACY          CLEAR     49  40  72 W9        30.00F
SLAYTON        CLEAR     47  37  68 W8        30.02S
$$
MNZ065>067-074>077-082>085-091>093-030900-
   South Central Minnesota

CITY           SKY/WX    TMP DP  RH WIND       PRES   REMARKS
MANKATO        CLEAR     52  36  54 SW5       29.99S
NEW ULM        CLEAR     46  39  76 SW6       29.99S
ST JAMES       PTCLDY    41  36  81 SW5       30.01S
FAIRMONT       CLEAR     46  36  66 SW6       30.00S
GLENCOE        CLEAR     51  41  68 SW6       29.97S
FARIBAULT      CLEAR     39  37  93 CALM      29.99S
OWATONNA       CLEAR     45  37  76 SW3       29.99S
WASECA         CLEAR     41  36  81 CALM      30.01S
ALBERT LEA     CLEAR     48  39  71 SW5       30.00F
$$
MNZ078>079-086>088-094>096-030900-
   Southeast Minnesota

CITY           SKY/WX    TMP DP  RH WIND       PRES   REMARKS
ROCHESTER      CLEAR     46  40  79 SW10      29.99F
RED WING       CLEAR     41  37  87 CALM      29.96F
STANTON        CLEAR     43  36  76 S3        29.96F
DODGE CENTER   CLEAR     39  36  87 SW8       29.99S
WINONA         CLEAR     46  41  81 CALM      29.98S
AUSTIN         CLEAR     45  37  76 CALM      29.99F
PRESTON        CLEAR     47  37  68 SW9       29.99F
$$
ABBREVIATIONS USED IN REMARKS
   TC - TEMPERATURES IN CELSIUS
  WCI - WIND CHILL INDEX
   HX - HEAT INDEX
  VSB - VISIBILITY
$$



USA.gov is the U.S. government's official web portal to all federal, state and local government web resources and services.